Home > Weather > Cedar Rapids > Past weeks

Flag for USA Weather for the Past 2 Weeks in Cedar Rapids, Iowa, USA

Now
48 °F

Overcast.


Feels Like: 43 °F
Forecast: 45 / 51 °F
Wind: 10 mph from East

Location: Cedar Rapids Municipal Airport

Current Time: Apr 29, 2016 at 9:02:30 PM

Latest Report: Apr 29, 2016 at 7:52 PM


Visibility: 10 mi

Pressure: 30.08 "Hg

Humidity: 83%

Dew Point: 43 °F

Location of Cedar RapidsLocation

Historic Weather in Cedar Rapids — Graph

°F

Cedar Rapids Temperature Yesterday

Maximum temperature yesterday: 54 °F (at 2:52 PM)
Minimum temperature yesterday: 45 °F (at 12:52 AM)
Average temperature yesterday: 49 °F

High & Low Weather Summary for the Past Weeks

 TemperatureHumidityPressure
High80 °F (Apr 17, 2:52 PM)100% (Apr 19, 1:52 PM)30.33 "Hg (Apr 19, 1:52 PM)
Low42 °F (Apr 15, 4:52 AM)29% (Apr 16, 4:52 PM)29.60 "Hg (Apr 25, 2:52 AM)
Average57 °F76%29.97 "Hg
* Reported Apr 14 7:52 PM — Apr 29 7:52 PM, Cedar Rapids, Weather by CustomWeather, © 2016

Note: Actual official high and low records may vary slightly from our data, if they occured in-between our weather recording intervals... More about our weather records

Advertising

Cedar Rapids Weather History for the Previous 24 Hours

Scroll right to see more
 ConditionsComfort  
Time TempWeatherWind HumidityBarometerVisibility
7:52 PM
Fri, Apr 29
48 °FOvercast.10 mph83%30.08 "Hg10 mi
6:52 PM48 °FOvercast.10 mph80%30.07 "Hg10 mi
5:52 PM49 °FOvercast.10 mph77%30.09 "Hg10 mi
4:52 PM49 °FOvercast.12 mph77%30.08 "Hg10 mi
3:52 PM50 °FOvercast.7 mph77%30.10 "Hg10 mi
2:52 PM49 °FPartly sunny.3 mph80%30.11 "Hg10 mi
1:52 PM49 °FOvercast.7 mph80%30.10 "Hg10 mi
12:52 PM47 °FMore clouds than sun.7 mph83%30.11 "Hg10 mi
11:52 AM46 °FOvercast.7 mph83%30.14 "Hg10 mi
10:59 AM46 °FOvercast.8 mph83%30.10 "Hg10 mi
9:52 AM45 °FOvercast.7 mph86%30.12 "Hg10 mi
8:52 AM44 °FOvercast.13 mph93%30.07 "Hg9 mi
7:52 AM44 °FPartly sunny.14 mph89%30.08 "Hg8 mi
6:52 AM43 °FFog.9 mph97%30.10 "Hg6 mi
5:52 AM43 °FFog.3 mph100%30.11 "Hg6 mi
4:52 AM43 °FLow clouds.3 mph97%30.11 "Hg7 mi
3:52 AM43 °FFog.7 mph100%30.08 "Hg6 mi
2:52 AM44 °FFog.8 mph100%30.07 "Hg5 mi
1:52 AM44 °FFog.9 mph100%30.06 "Hg4 mi
12:52 AM45 °FFog.8 mph100%30.06 "Hg4 mi
12:03 AM46 °FFog.6 mph100%30.04 "Hg3 mi
10:52 PM
Thu, Apr 28
46 °FFog.7 mph100%30.03 "Hg4 mi
9:52 PM47 °FFog.8 mph100%30.01 "Hg4 mi
Weather by CustomWeather, © 2016

See weather overviewHow to use our weather pages